UKUBE-1
1 40074U 14037F 17236.81995971 .00000371 00000-0 52214-4 0 9997
2 40074 98.3531 354.8473 0004774 173.6638 186.4658 14.83544191169358
HODOYOSHI-1
1 40299U 14070B 17236.81594182 .00001082 00000-0 49861-4 0 9996
2 40299 97.4021 318.5105 0012248 205.1516 250.1785 15.22355061155389
CHUBUSAT-1
1 40300U 14070C 17236.77794760 .00001051 00000-0 50398-4 0 9991
2 40300 97.3935 315.4118 0019328 218.1148 237.3847 15.20962608155213
QSAT-EOS
1 40301U 14070D 17236.77841027 .00002457 00000-0 10530-3 0 9995
2 40301 97.3871 315.6548 0026499 213.4532 242.1699 15.23414745155276
FIREBIRD FU3
1 40377U 15003B 17236.47911006 .00004387 00000-0 18669-3 0 9992
2 40377 099.1212 074.0717 0136197 135.7651 225.4561 15.15650731141340
FIREBIRD FU4
1 40378U 15003C 17236.80050145 .00003729 00000-0 15918-3 0 9991
2 40378 99.1215 74.4995 0136412 134.6055 226.6399 15.15669968141403
GRIFEX
1 40379U 15003D 17236.76468411 .00003334 00000-0 15122-3 0 9995
2 40379 99.1243 71.9465 0142284 143.1323 217.9789 15.13156208141251
NO-84
1 40654U 15025D 17236.33950216 .00008640 00000-0 15768-3 0 00629
2 40654 054.9943 291.8250 0180953 077.6780 284.4403 15.34435874010171
NO-83
1 40655U 15025E 17236.31374498 .00015696 00000-0 22457-3 0 00677
2 40655 054.9785 262.8494 0147459 093.9926 267.7979 15.44808854010200
DEORBITSAIL
1 40719U 15032E 17236.24838264 .00000518 00000-0 82315-4 0 9995
2 40719 97.9719 129.1287 0015181 287.1448 72.8099 14.76115237114362
NUDT-PHONESAT
1 40900U 15049B 17236.85557261 .00003346 00000-0 15965-3 0 9995
2 40900 97.4433 243.8157 0013590 354.0015 6.1055 15.19686516106889
XW-2A
1 40903U 15049E 17236.85295792 .00003171 00000-0 84007-4 0 9996
2 40903 97.4173 263.3986 0015409 25.4834 334.7167 15.39014869108209
XW-2C
1 40906U 15049H 17236.81824781 .00001010 00000-0 58107-4 0 9993
2 40906 97.4562 240.9438 0014666 343.5126 16.5627 15.14635233106626
XW-2D
1 40907U 15049J 17236.86288972 .00001071 00000-0 61232-4 0 9995
2 40907 97.4532 240.7336 0013969 341.6369 18.4357 15.14745732106630
LILACSAT-2
1 40908U 15049K 17236.86364973 .00000537 00000-0 33878-4 0 9993
2 40908 97.4636 240.4441 0015510 339.5033 20.5574 15.13178857106551
XW-2F
1 40910U 15049M 17236.82434759 .00001593 00000-0 87036-4 0 9990
2 40910 97.4551 241.4899 0014702 338.8613 21.2011 15.15673683106548
XW-2B
1 40911U 15049N 17236.87073476 .00001052 00000-0 60264-4 0 9995
2 40911 97.4574 241.1517 0013890 342.0632 18.0108 15.14705571106534
DCBB
1 40912U 15049P 17236.72687506 .00001824 00000-0 93414-4 0 9995
2 40912 97.4517 243.4287 0014522 330.3930 148.2787 15.17790991106683
TW-1C
1 40926U 15051B 17236.74110611 .00009041 00000-0 20280-3 0 9992
2 40926 97.2241 275.7889 0009362 282.1291 172.0832 15.43582816107496
TW-1A
1 40928U 15051D 17236.73901747 .00004136 00000-0 11802-3 0 9991
2 40928 97.2220 271.3207 0011243 318.3070 135.1501 15.36535873107226
IO-86
1 40931U 15052B 17236.46662658 .00000260 00000-0 -53105-4 0 9999
2 40931 6.0004 105.7954 0013409 133.8246 226.3358 14.76536579103077
GomX-3
1 40949U 98067HA 16292.18357804 .08527750 12374-4 77882-3 0 9992
2 40949 51.6055 106.7696 0006699 286.1344 73.8944 16.38002265 59645
LQSat
1 40958U 15057A 17236.72234314 .00000057 00000-0 16623-4 0 9993
2 40958 97.9742 310.8301 0017475 202.4577 157.5870 14.72978907101204
AO-85
1 40967U 15058D 17236.35618192 .00000259 00000-0 48933-4 0 00683
2 40967 064.7782 012.0931 0175484 052.8757 308.8261 14.75473305009850
ATHENOXAT-1
1 41168U 15077C 17236.71405093 .00002734 00000-0 11702-3 0 9998
2 41168 14.9855 28.7647 0011819 248.1301 304.1518 15.11751489 93429
ChubuSat-2
1 41338U 16012B 17236.77110523 .00000460 00000-0 29481-4 0 9992
2 41338 31.0042 36.6678 0013936 17.6457 342.4661 14.99777913 83294
ChubuSat-3
1 41339U 16012C 17236.75654325 .00000457 00000-0 29073-4 0 9997
2 41339 31.0120 35.7949 0013911 24.2620 335.8664 14.99980542 83273
Horyu-4
1 41340U 16012D 17236.56691276 .00000713 00000-0 48306-4 0 9999
2 41340 031.0061 034.0247 0014188 031.3419 328.8060 15.00653440083295
OUFTI-1
1 41458U 16025C 17236.60495952 .00003771 00000-0 20249-3 0 9993
2 41458 098.1775 278.0938 0174576 061.3251 300.5406 15.03408226072868
e-st@r-II
1 41459U 16025D 17236.76649193 .00003045 00000-0 16409-3 0 9996
2 41459 98.1810 278.2053 0176419 61.1760 300.7044 15.03244952 72875
AAUSAT4
1 41460U 16025E 17236.78846545 .00004452 00000-0 23841-3 0 9991
2 41460 98.1739 278.3671 0167909 58.9755 302.7818 15.04217862 72902
NODES 1
1 41477U 98067HX 17236.43591152 .00236534 33002-4 59202-3 0 9998
2 41477 051.6235 005.5875 0005725 329.3484 030.7189 15.95249944072918
NODES 2
1 41478U 98067HY 17236.45146913 .00210819 28142-4 57166-3 0 9996
2 41478 051.6275 006.5096 0005331 328.2053 031.8632 15.93791648072907
LO-87
1 41557U 16033B 17236.81417026 .00002385 00000-0 91893-4 0 9995
2 41557 97.4601 316.3282 0015707 122.2661 238.0103 15.27239702 68904
NuSat2
1 41558U 16033C 17236.52659578 .00002394 00000-0 92738-4 0 9993
2 41558 097.4630 316.1030 0015161 121.9004 238.3712 15.27056635068852
Lapan A3
1 41603U 16040E 17236.86863008 .00000198 00000-0 12610-4 0 9995
2 41603 97.4555 298.0113 0012925 187.9768 274.9016 15.19384987 65083
Swayam
1 41607U 16040J 17236.62078575 .00002480 00000-0 11477-3 0 9995
2 41607 97.4546 298.2131 0014040 190.6025 169.4917 15.20999054 65005
Pratham
1 41783U 16059A 17236.21948604 .00000088 00000-0 26674-4 0 9992
2 41783 098.1613 296.8685 0032527 308.9364 050.8940 14.62851732048545
AlSat 1N
1 41789U 16059G 17236.76680176 .00000119 00000-0 31996-4 0 9993
2 41789 98.1616 298.0442 0027300 301.4721 58.3809 14.64066623 48644
ScatSat
1 41790U 16059H 17236.55869366 .00000026 00000-0 17650-4 0 9990
2 41790 098.3044 283.9985 0017216 295.8265 064.1154 14.51719735048173
TY-1
1 41844U 16066D 17236.77914127 .00001692 00000-0 76522-4 0 9991
2 41844 97.4062 242.9034 0016336 4.9421 80.1585 15.22195917 43774
CAS-2T
1 41845U 16066E 17236.66649493 .00000284 00000-0 52873-4 0 9990
2 41845 98.7760 253.9278 0367478 45.1798 317.8642 14.37779541 41336
Pegasus-1
1 41846U 16066F 17236.75506208 .00000651 00000-0 10887-3 0 9993
2 41846 98.7790 253.7538 0370064 46.3980 316.7291 14.37072133 41328
STARS-C
1 41895U 98067KR 17236.55533135 .00043211 00000-0 43558-3 0 9995
2 41895 051.6371 048.1968 0004319 214.8406 145.2307 15.64929996038687
Tancredo 1
1 41931U 98067KT 17236.55344801 .00110371 00000-0 71172-3 0 9991
2 41931 051.6337 041.3712 0004232 205.0839 154.9956 15.75291080034342
TO-89
1 41932U 98067KU 17236.49597152 .00023641 00000-0 28241-3 0 9996
2 41932 051.6404 051.5907 0005378 163.3587 196.7584 15.60885269034203
AOBA-V3LOX3
1 41935U 98067KX 17236.85306021 .00022981 00000-0 26937-3 0 9998
2 41935 51.6402 49.4701 0004718 169.8034 190.3056 15.61401928 34365
OSNSAT
1 41939U 98067KZ 17236.50932533 .00057691 00000-0 52206-3 0 9991
2 41939 051.6370 046.3779 0005490 178.1257 181.9760 15.67489728033639
EO-88
1 42017U 17008BX 17236.56381834 .00002543 00000-0 11053-3 0 9994
2 42017 097.4892 297.8755 0006147 357.0489 003.0710 15.23197427028891
HAVELSAT
1 42700U 98067LH 17236.51578598 .00023678 00000-0 32288-3 0 9992
2 42700 051.6394 056.1994 0006393 214.8793 145.1781 15.57365466015586
SOMP2
1 42701U 98067LJ 17236.58734905 .00019955 00000-0 27589-3 0 9997
2 42701 051.6400 055.9305 0006323 215.3550 144.7023 15.57111533015586
Columbia
1 42702U 98067LK 17236.58126442 .00041822 00000-0 51902-3 0 9993
2 42702 51.6389 55.1366 0006819 212.4361 147.6213 15.59566654 15527
PHOENIX
1 42706U 98067LP 17236.58413003 .00018938 00000-0 26162-3 0 9991
2 42706 051.6401 055.9110 0001917 182.4320 177.6663 15.57187584015505
